• In Germany
  • List of Countries
  • For 7 days
  • Water Temperature
  • Satellite Maps
  • Weather Map
  • Weather Widgets
  • user-avatar
    Login

    Hourly Weather Satif

    Today, 28 July, Friday

    Time Temperature Precipitation Wind Pressure Humidity
    00:00 +26°C° 0 mm 1 mps 675 mmHg 43%
    01:00 +25°C° 0 mm 1 mps 674 mmHg 44%
    02:00 +25°C° 0 mm 1 mps 674 mmHg 45%
    03:00 +25°C° 0 mm 1 mps 674 mmHg 46%
    04:00 +25°C° 0 mm 1 mps 674 mmHg 44%
    05:00 +26°C° 0 mm 1 mps 674 mmHg 42%
    06:00 +26°C° 0 mm 1 mps 675 mmHg 40%
    07:00 +28°C° 0 mm 1 mps 675 mmHg 34%
    08:00 +30°C° 0 mm 2 mps 676 mmHg 29%
    09:00 +31°C° 0 mm 2 mps 677 mmHg 24%
    10:00 +32°C° 0 mm 2 mps 677 mmHg 22%
    11:00 +34°C° 0 mm 3 mps 677 mmHg 19%
    12:00 +35°C° 0 mm 3 mps 677 mmHg 17%
    13:00 +36°C° 0 mm 3 mps 677 mmHg 17%
    14:00 +36°C° 0 mm 4 mps 677 mmHg 16%
    15:00 +37°C° 0 mm 4 mps 676 mmHg 16%
    16:00 +36°C° 0 mm 3 mps 676 mmHg 17%
    17:00 +35°C° 0 mm 3 mps 676 mmHg 19%
    18:00 +35°C° 0 mm 2 mps 676 mmHg 21%
    19:00 +32°C° 0 mm 2 mps 676 mmHg 23%
    20:00 +31°C° 0 mm 2 mps 676 mmHg 26%
    21:00 +30°C° 0 mm 2 mps 676 mmHg 28%
    22:00 +30°C° 0 mm 2 mps 676 mmHg 29%
    23:00 +29°C° 0 mm 2 mps 676 mmHg 30%

    Tomorrow, 29 July, Saturday

    Time Temperature Precipitation Wind Pressure Humidity
    00:00 +29°C° 0 mm 1 mps 675 mmHg 31%
    01:00 +28°C° 0 mm 1 mps 675 mmHg 31%
    02:00 +28°C° 0 mm 1 mps 675 mmHg 32%
    03:00 +27°C° 0 mm 1 mps 674 mmHg 32%
    04:00 +28°C° 0 mm 2 mps 675 mmHg 32%
    05:00 +28°C° 0 mm 2 mps 675 mmHg 31%
    06:00 +29°C° 0 mm 2 mps 675 mmHg 31%
    07:00 +30°C° 0 mm 3 mps 676 mmHg 28%
    08:00 +33°C° 0 mm 5 mps 676 mmHg 25%
    09:00 +35°C° 0 mm 6 mps 677 mmHg 22%
    10:00 +36°C° 0 mm 6 mps 677 mmHg 20%
    11:00 +38°C° 0 mm 6 mps 677 mmHg 19%
    12:00 +38°C° 0 mm 7 mps 677 mmHg 18%
    13:00 +39°C° 0 mm 6 mps 677 mmHg 18%
    14:00 +39°C° 0 mm 5 mps 676 mmHg 18%
    15:00 +39°C° 0 mm 5 mps 676 mmHg 17%
    16:00 +37°C° 0 mm 5 mps 676 mmHg 19%
    17:00 +36°C° 0 mm 4 mps 676 mmHg 20%
    18:00 +36°C° 0 mm 4 mps 675 mmHg 21%
    19:00 +35°C° 0 mm 3 mps 675 mmHg 24%
    20:00 +32°C° 0 mm 2 mps 676 mmHg 27%
    21:00 +31°C° 0 mm 1 mps 676 mmHg 29%
    22:00 +31°C° 0 mm 1 mps 675 mmHg 30%
    23:00 +30°C° 0 mm 1 mps 675 mmHg 30%

    Day after tomorrow, 30 July, Sunday

    Time Temperature Precipitation Wind Pressure Humidity
    00:00 +30°C° 0 mm 1 mps 675 mmHg 31%
    01:00 +29°C° 0 mm 2 mps 675 mmHg 30%
    02:00 +29°C° 0 mm 2 mps 674 mmHg 30%
    03:00 +29°C° 0 mm 3 mps 674 mmHg 30%
    04:00 +29°C° 0 mm 3 mps 674 mmHg 30%
    05:00 +29°C° 0 mm 3 mps 674 mmHg 30%
    06:00 +29°C° 0 mm 3 mps 675 mmHg 30%
    07:00 +31°C° 0 mm 3 mps 675 mmHg 27%
    08:00 +33°C° 0 mm 4 mps 676 mmHg 23%
    09:00 +35°C° 0 mm 5 mps 676 mmHg 20%
    10:00 +35°C° 0 mm 5 mps 676 mmHg 20%
    11:00 +36°C° 0 mm 5 mps 676 mmHg 19%
    12:00 +37°C° 0 mm 5 mps 676 mmHg 19%
    13:00 +37°C° 0 mm 4 mps 676 mmHg 19%
    14:00 +37°C° 0 mm 4 mps 676 mmHg 19%
    15:00 +37°C° 0 mm 4 mps 676 mmHg 19%
    16:00 +37°C° 0 mm 3 mps 675 mmHg 21%
    17:00 +36°C° 0 mm 3 mps 675 mmHg 23%
    18:00 +35°C° 0 mm 3 mps 675 mmHg 24%
    19:00 +34°C° 0 mm 2 mps 675 mmHg 28%
    20:00 +32°C° 0 mm 1 mps 675 mmHg 31%
    21:00 +31°C° 0 mm 1 mps 675 mmHg 34%
    22:00 +30°C° 0 mm 1 mps 675 mmHg 34%
    23:00 +30°C° 0 mm 1 mps 674 mmHg 34%

    31 July, Monday

    Time Temperature Precipitation Wind Pressure Humidity
    00:00 +30°C° 0 mm 1 mps 674 mmHg 34%
    01:00 +29°C° 0 mm 2 mps 674 mmHg 33%
    02:00 +29°C° 0 mm 2 mps 673 mmHg 32%
    03:00 +29°C° 0 mm 2 mps 673 mmHg 31%
    04:00 +29°C° 0 mm 2 mps 673 mmHg 30%
    05:00 +29°C° 0 mm 3 mps 673 mmHg 28%
    06:00 +29°C° 0 mm 3 mps 674 mmHg 27%
    07:00 +32°C° 0 mm 4 mps 674 mmHg 24%
    08:00 +34°C° 0 mm 4 mps 675 mmHg 21%
    09:00 +36°C° 0 mm 5 mps 675 mmHg 18%
    10:00 +37°C° 0 mm 5 mps 675 mmHg 17%
    11:00 +39°C° 0 mm 5 mps 675 mmHg 16%
    12:00 +40°C° 0 mm 5 mps 675 mmHg 14%
    13:00 +41°C° 0 mm 5 mps 675 mmHg 14%
    14:00 +41°C° 0 mm 4 mps 675 mmHg 14%
    15:00 +41°C° 0 mm 4 mps 674 mmHg 14%
    16:00 +40°C° 0 mm 4 mps 674 mmHg 15%
    17:00 +39°C° 0 mm 3 mps 674 mmHg 16%
    18:00 +38°C° 0 mm 3 mps 674 mmHg 17%
    19:00 +37°C° 0.1 mm 3 mps 674 mmHg 19%
    20:00 +36°C° 0.1 mm 3 mps 675 mmHg 21%
    21:00 +35°C° 0.1 mm 4 mps 675 mmHg 23%
    22:00 +34°C° 0.1 mm 4 mps 675 mmHg 23%
    23:00 +34°C° 0.1 mm 3 mps 675 mmHg 23%

    1 August, Tuesday

    Time Temperature Precipitation Wind Pressure Humidity
    00:00 +34°C° 0.1 mm 3 mps 675 mmHg 23%
    01:00 +33°C° 0 mm 3 mps 674 mmHg 24%
    02:00 +32°C° 0 mm 2 mps 674 mmHg 24%
    03:00 +31°C° 0 mm 2 mps 674 mmHg 25%
    04:00 +31°C° 0 mm 2 mps 674 mmHg 25%
    05:00 +31°C° 0 mm 2 mps 674 mmHg 25%
    06:00 +31°C° 0 mm 2 mps 675 mmHg 25%
    07:00 +34°C° 0 mm 2 mps 675 mmHg 23%
    08:00 +35°C° 0 mm 2 mps 676 mmHg 21%
    09:00 +36°C° 0 mm 2 mps 676 mmHg 18%
    10:00 +37°C° 0 mm 2 mps 676 mmHg 17%
    11:00 +38°C° 0 mm 2 mps 677 mmHg 15%
    12:00 +39°C° 0 mm 2 mps 677 mmHg 14%
    13:00 +39°C° 0 mm 2 mps 677 mmHg 14%
    14:00 +39°C° 0 mm 2 mps 676 mmHg 15%
    15:00 +39°C° 0 mm 2 mps 676 mmHg 15%
    16:00 +38°C° 0 mm 2 mps 676 mmHg 17%
    17:00 +37°C° 0 mm 3 mps 676 mmHg 20%
    18:00 +36°C° 0 mm 3 mps 676 mmHg 22%
    19:00 +35°C° 0.2 mm 4 mps 676 mmHg 26%
    20:00 +33°C° 0.2 mm 5 mps 676 mmHg 30%
    21:00 +32°C° 0.2 mm 6 mps 677 mmHg 34%
    22:00 +32°C° 0.2 mm 6 mps 677 mmHg 33%
    23:00 +30°C° 0.2 mm 5 mps 676 mmHg 32%

    2 August, Wednesday

    Time Temperature Precipitation Wind Pressure Humidity
    00:00 +30°C° 0.2 mm 5 mps 676 mmHg 30%
    01:00 +30°C° 0 mm 4 mps 676 mmHg 29%
    02:00 +30°C° 0 mm 3 mps 676 mmHg 28%
    03:00 +30°C° 0 mm 2 mps 676 mmHg 27%
    04:00 +30°C° 0 mm 2 mps 676 mmHg 28%
    05:00 +30°C° 0 mm 2 mps 676 mmHg 28%
    06:00 +30°C° 0 mm 2 mps 676 mmHg 29%
    07:00 +32°C° 0 mm 2 mps 677 mmHg 26%
    08:00 +35°C° 0 mm 2 mps 677 mmHg 23%
    09:00 +36°C° 0 mm 2 mps 678 mmHg 20%
    10:00 +37°C° 0 mm 3 mps 678 mmHg 19%
    11:00 +38°C° 0 mm 3 mps 678 mmHg 18%
    12:00 +39°C° 0 mm 3 mps 678 mmHg 17%
    13:00 +40°C° 0 mm 4 mps 677 mmHg 17%
    14:00 +40°C° 0 mm 4 mps 677 mmHg 18%
    15:00 +40°C° 0 mm 4 mps 677 mmHg 18%
    16:00 +38°C° 0 mm 3 mps 677 mmHg 19%
    17:00 +38°C° 0 mm 3 mps 677 mmHg 21%
    18:00 +37°C° 0 mm 2 mps 676 mmHg 23%
    19:00 +35°C° 0 mm 2 mps 676 mmHg 26%
    20:00 +33°C° 0 mm 1 mps 676 mmHg 30%
    21:00 +32°C° 0 mm 1 mps 676 mmHg 33%
    22:00 +31°C° 0 mm 1 mps 676 mmHg 33%
    23:00 +31°C° 0 mm 1 mps 676 mmHg 33%
    Show more